owner,sensor,date,latitude,longitude,vertical_datum,wind_speed,wind_to_direction,wind_speed_of_gust,qcFlag 
WAVCIS,ioos:station:WAVCIS:CSI15:1,2009-08-01T00:00:00Z,28.8332,-90.8320,10.0,5.8,215.0,,'11111222,11111222,99999999' 
WAVCIS,ioos:station:WAVCIS:CSI15:1,2009-08-01T01:00:00Z,28.8332,-90.8320,10.0,4.749,211.0,,'11111222,11111222,99999999' 
WAVCIS,ioos:station:WAVCIS:CSI15:1,2009-08-01T02:00:00Z,28.8332,-90.8320,10.0,4.835,210.0,,'11111222,11111222,99999999' 
WAVCIS,ioos:station:WAVCIS:CSI15:1,2009-08-01T03:00:00Z,28.8332,-90.8320,10.0,4.541,193.0,,'11111222,11111222,99999999' 
WAVCIS,ioos:station:WAVCIS:CSI15:1,2009-08-01T04:00:00Z,28.8332,-90.8320,10.0,4.428,198.0,,'11111222,11111222,99999999' 
WAVCIS,ioos:station:WAVCIS:CSI15:1,2009-08-01T05:00:00Z,28.8332,-90.8320,10.0,4.981,199.0,,'11111222,11111222,99999999' 
WAVCIS,ioos:station:WAVCIS:CSI15:1,2009-08-01T06:00:00Z,28.8332,-90.8320,10.0,6.231,193.0,,'11111222,11111222,99999999' 
WAVCIS,ioos:station:WAVCIS:CSI15:1,2009-08-01T07:00:00Z,28.8332,-90.8320,10.0,5.734,198.0,,'11111222,11111222,99999999' 
WAVCIS,ioos:station:WAVCIS:CSI15:1,2009-08-01T08:00:00Z,28.8332,-90.8320,10.0,7.08,201.0,,'11111222,11111222,99999999' 
WAVCIS,ioos:station:WAVCIS:CSI15:1,2009-08-01T09:00:00Z,28.8332,-90.8320,10.0,6.655,192.0,,'11111222,11111222,99999999' 
WAVCIS,ioos:station:WAVCIS:CSI15:1,2009-08-01T10:00:00Z,28.8332,-90.8320,10.0,6.664,200.0,,'11111222,11111222,99999999' 
WAVCIS,ioos:station:WAVCIS:CSI15:1,2009-08-01T11:00:00Z,28.8332,-90.8320,10.0,6.727,200.0,,'11111222,11111222,99999999' 
WAVCIS,ioos:station:WAVCIS:CSI15:1,2009-08-01T12:00:00Z,28.8332,-90.8320,10.0,5.271,196.0,,'11111222,11111222,99999999' 
WAVCIS,ioos:station:WAVCIS:CSI15:1,2009-08-01T13:00:00Z,28.8332,-90.8320,10.0,4.07,204.0,,'11111222,11111222,99999999' 
WAVCIS,ioos:station:WAVCIS:CSI15:1,2009-08-01T14:00:00Z,28.8332,-90.8320,10.0,4.097,187.0,,'11111222,11111222,99999999' 
WAVCIS,ioos:station:WAVCIS:CSI15:1,2009-08-01T15:00:00Z,28.8332,-90.8320,10.0,4.463,189.0,,'11111222,11111222,99999999' 
WAVCIS,ioos:station:WAVCIS:CSI15:1,2009-08-01T16:00:00Z,28.8332,-90.8320,10.0,4.76,183.0,,'11111222,11111222,99999999' 
WAVCIS,ioos:station:WAVCIS:CSI15:1,2009-08-01T17:00:00Z,28.8332,-90.8320,10.0,5.368,186.0,,'11111222,11111222,99999999' 
WAVCIS,ioos:station:WAVCIS:CSI15:1,2009-08-01T18:00:00Z,28.8332,-90.8320,10.0,5.962,189.0,,'11111222,11111222,99999999' 
WAVCIS,ioos:station:WAVCIS:CSI15:1,2009-08-01T19:00:00Z,28.8332,-90.8320,10.0,5.645,197.0,,'11111222,11111222,99999999' 
WAVCIS,ioos:station:WAVCIS:CSI15:1,2009-08-01T20:00:00Z,28.8332,-90.8320,10.0,5.144,215.0,,'11111222,11111222,99999999' 
WAVCIS,ioos:station:WAVCIS:CSI15:1,2009-08-01T21:00:00Z,28.8332,-90.8320,10.0,5.398,211.0,,'11111222,11111222,99999999' 
WAVCIS,ioos:station:WAVCIS:CSI15:1,2009-08-01T22:00:00Z,28.8332,-90.8320,10.0,4.455,208.0,,'11111222,11111222,99999999' 
WAVCIS,ioos:station:WAVCIS:CSI15:1,2009-08-01T23:00:00Z,28.8332,-90.8320,10.0,5.044,203.0,,'11111222,11111222,99999999' 
WAVCIS,ioos:station:WAVCIS:CSI15:1,2009-08-02T00:00:00Z,28.8332,-90.8320,10.0,4.703,193.0,,'11111222,11111222,99999999' 
WAVCIS,ioos:station:WAVCIS:CSI15:1,2009-08-02T01:00:00Z,28.8332,-90.8320,10.0,5.109,199.0,,'11111222,11111222,99999999' 
WAVCIS,ioos:station:WAVCIS:CSI15:1,2009-08-02T02:00:00Z,28.8332,-90.8320,10.0,5.06,186.0,,'11111222,11111222,99999999' 
WAVCIS,ioos:station:WAVCIS:CSI15:1,2009-08-02T03:00:00Z,28.8332,-90.8320,10.0,4.519,191.0,,'11111222,11111222,99999999' 
WAVCIS,ioos:station:WAVCIS:CSI15:1,2009-08-02T04:00:00Z,28.8332,-90.8320,10.0,4.704,192.0,,'11111222,11111222,99999999' 
WAVCIS,ioos:station:WAVCIS:CSI15:1,2009-08-02T05:00:00Z,28.8332,-90.8320,10.0,5.298,193.0,,'11111222,11111222,99999999' 
WAVCIS,ioos:station:WAVCIS:CSI15:1,2009-08-02T06:00:00Z,28.8332,-90.8320,10.0,5.41,198.0,,'11111222,11111222,99999999' 
WAVCIS,ioos:station:WAVCIS:CSI15:1,2009-08-02T07:00:00Z,28.8332,-90.8320,10.0,5.294,202.0,,'11111222,11111222,99999999' 
WAVCIS,ioos:station:WAVCIS:CSI15:1,2009-08-02T08:00:00Z,28.8332,-90.8320,10.0,5.313,199.0,,'11111222,11111222,99999999' 
WAVCIS,ioos:station:WAVCIS:CSI15:1,2009-08-02T09:00:00Z,28.8332,-90.8320,10.0,6.726,194.0,,'11111222,11111222,99999999' 
WAVCIS,ioos:station:WAVCIS:CSI15:1,2009-08-02T10:00:00Z,28.8332,-90.8320,10.0,7.09,191.0,,'11111222,11111222,99999999' 
WAVCIS,ioos:station:WAVCIS:CSI15:1,2009-08-02T11:00:00Z,28.8332,-90.8320,10.0,5.837,193.0,,'11111222,11111222,99999999' 
WAVCIS,ioos:station:WAVCIS:CSI15:1,2009-08-02T12:00:00Z,28.8332,-90.8320,10.0,4.551,221.0,,'11111222,11111222,99999999' 
WAVCIS,ioos:station:WAVCIS:CSI15:1,2009-08-02T13:00:00Z,28.8332,-90.8320,10.0,4.355,229.0,,'11111222,11111222,99999999' 
WAVCIS,ioos:station:WAVCIS:CSI15:1,2009-08-02T14:00:00Z,28.8332,-90.8320,10.0,3.444,249.0,,'11111222,11111222,99999999' 
WAVCIS,ioos:station:WAVCIS:CSI15:1,2009-08-02T15:00:00Z,28.8332,-90.8320,10.0,2.999,246.0,,'11111222,11111222,99999999' 
WAVCIS,ioos:station:WAVCIS:CSI15:1,2009-08-02T16:00:00Z,28.8332,-90.8320,10.0,3.084,222.0,,'11111222,11111222,99999999' 
WAVCIS,ioos:station:WAVCIS:CSI15:1,2009-08-02T17:00:00Z,28.8332,-90.8320,10.0,3.852,226.0,,'11111222,11111222,99999999' 
WAVCIS,ioos:station:WAVCIS:CSI15:1,2009-08-02T18:00:00Z,28.8332,-90.8320,10.0,4.459,223.0,,'11111222,11111222,99999999' 
WAVCIS,ioos:station:WAVCIS:CSI15:1,2009-08-02T19:00:00Z,28.8332,-90.8320,10.0,3.143,224.0,,'11111222,11111222,99999999' 
WAVCIS,ioos:station:WAVCIS:CSI15:1,2009-08-02T20:00:00Z,28.8332,-90.8320,10.0,4.323,218.0,,'11111222,11111222,99999999' 
WAVCIS,ioos:station:WAVCIS:CSI15:1,2009-08-02T21:00:00Z,28.8332,-90.8320,10.0,4.27,225.0,,'11111222,11111222,99999999' 
WAVCIS,ioos:station:WAVCIS:CSI15:1,2009-08-02T22:00:00Z,28.8332,-90.8320,10.0,6.737,1.0,,'11111222,11111222,99999999' 
WAVCIS,ioos:station:WAVCIS:CSI15:1,2009-08-02T23:00:00Z,28.8332,-90.8320,10.0,1.217,291.0,,'11111222,11111222,99999999' 
WAVCIS,ioos:station:WAVCIS:CSI15:1,2009-08-03T00:00:00Z,28.8332,-90.8320,10.0,1.906,258.0,,'11111222,11111222,99999999' 
WAVCIS,ioos:station:WAVCIS:CSI15:1,2009-08-03T01:00:00Z,28.8332,-90.8320,10.0,1.76,261.0,,'11111222,11111222,99999999' 
WAVCIS,ioos:station:WAVCIS:CSI15:1,2009-08-03T02:00:00Z,28.8332,-90.8320,10.0,1.051,182.0,,'11111222,11111222,99999999' 
WAVCIS,ioos:station:WAVCIS:CSI15:1,2009-08-03T03:00:00Z,28.8332,-90.8320,10.0,1.804,217.0,,'11111222,11111222,99999999' 
WAVCIS,ioos:station:WAVCIS:CSI15:1,2009-08-03T04:00:00Z,28.8332,-90.8320,10.0,2.616,177.0,,'11111222,11111222,99999999' 
WAVCIS,ioos:station:WAVCIS:CSI15:1,2009-08-03T05:00:00Z,28.8332,-90.8320,10.0,2.149,172.0,,'11111222,11111222,99999999' 
WAVCIS,ioos:station:WAVCIS:CSI15:1,2009-08-03T06:00:00Z,28.8332,-90.8320,10.0,3.424,185.0,,'11111222,11111222,99999999' 
WAVCIS,ioos:station:WAVCIS:CSI15:1,2009-08-03T07:00:00Z,28.8332,-90.8320,10.0,2.962,174.0,,'11111222,11111222,99999999' 
WAVCIS,ioos:station:WAVCIS:CSI15:1,2009-08-03T08:00:00Z,28.8332,-90.8320,10.0,3.797,179.0,,'11111222,11111222,99999999' 
WAVCIS,ioos:station:WAVCIS:CSI15:1,2009-08-03T09:00:00Z,28.8332,-90.8320,10.0,3.364,181.0,,'11111222,11111222,99999999' 
WAVCIS,ioos:station:WAVCIS:CSI15:1,2009-08-03T10:00:00Z,28.8332,-90.8320,10.0,3.273,191.0,,'11111222,11111222,99999999' 
WAVCIS,ioos:station:WAVCIS:CSI15:1,2009-08-03T11:00:00Z,28.8332,-90.8320,10.0,4.344,194.0,,'11111222,11111222,99999999' 
WAVCIS,ioos:station:WAVCIS:CSI15:1,2009-08-03T12:00:00Z,28.8332,-90.8320,10.0,3.517,216.0,,'11111222,11111222,99999999' 
WAVCIS,ioos:station:WAVCIS:CSI15:1,2009-08-03T13:00:00Z,28.8332,-90.8320,10.0,2.849,232.0,,'11111222,11111222,99999999' 
WAVCIS,ioos:station:WAVCIS:CSI15:1,2009-08-03T14:00:00Z,28.8332,-90.8320,10.0,2.073,224.0,,'11111222,11111222,99999999' 
WAVCIS,ioos:station:WAVCIS:CSI15:1,2009-08-03T15:00:00Z,28.8332,-90.8320,10.0,2.111,262.0,,'11111222,11111222,99999999' 
WAVCIS,ioos:station:WAVCIS:CSI15:1,2009-08-03T16:00:00Z,28.8332,-90.8320,10.0,1.54,254.0,,'11111222,11111222,99999999' 
WAVCIS,ioos:station:WAVCIS:CSI15:1,2009-08-03T17:00:00Z,28.8332,-90.8320,10.0,1.371,221.0,,'11111222,11111222,99999999' 
WAVCIS,ioos:station:WAVCIS:CSI15:1,2009-08-03T18:00:00Z,28.8332,-90.8320,10.0,0.163,241.0,,'11111222,11111222,99999999' 
WAVCIS,ioos:station:WAVCIS:CSI15:1,2009-08-03T19:00:00Z,28.8332,-90.8320,10.0,0.46,264.0,,'11111222,11111222,99999999' 
WAVCIS,ioos:station:WAVCIS:CSI15:1,2009-08-03T20:00:00Z,28.8332,-90.8320,10.0,0.677,207.0,,'11111222,11111222,99999999' 
WAVCIS,ioos:station:WAVCIS:CSI15:1,2009-08-03T21:00:00Z,28.8332,-90.8320,10.0,0.98,213.0,,'11111222,11111222,99999999' 
WAVCIS,ioos:station:WAVCIS:CSI15:1,2009-08-03T22:00:00Z,28.8332,-90.8320,10.0,1.446,211.0,,'11111222,11111222,99999999' 
WAVCIS,ioos:station:WAVCIS:CSI15:1,2009-08-03T23:00:00Z,28.8332,-90.8320,10.0,2.221,202.0,,'11111222,11111222,99999999' 
WAVCIS,ioos:station:WAVCIS:CSI15:1,2009-08-04T00:00:00Z,28.8332,-90.8320,10.0,1.704,179.0,,'11111222,11111222,99999999' 
WAVCIS,ioos:station:WAVCIS:CSI15:1,2009-08-04T01:00:00Z,28.8332,-90.8320,10.0,1.033,157.0,,'11111222,11111222,99999999' 
WAVCIS,ioos:station:WAVCIS:CSI15:1,2009-08-04T02:00:00Z,28.8332,-90.8320,10.0,1.399,168.0,,'11111222,11111222,99999999' 
WAVCIS,ioos:station:WAVCIS:CSI15:1,2009-08-04T03:00:00Z,28.8332,-90.8320,10.0,2.086,187.0,,'11111222,11111222,99999999' 
WAVCIS,ioos:station:WAVCIS:CSI15:1,2009-08-04T04:00:00Z,28.8332,-90.8320,10.0,2.52,162.0,,'11111222,11111222,99999999' 
WAVCIS,ioos:station:WAVCIS:CSI15:1,2009-08-04T05:00:00Z,28.8332,-90.8320,10.0,3.483,163.0,,'11111222,11111222,99999999' 
WAVCIS,ioos:station:WAVCIS:CSI15:1,2009-08-04T06:00:00Z,28.8332,-90.8320,10.0,4.489,149.0,,'11111222,11111222,99999999' 
WAVCIS,ioos:station:WAVCIS:CSI15:1,2009-08-04T07:00:00Z,28.8332,-90.8320,10.0,4.102,159.0,,'11111222,11111222,99999999' 
WAVCIS,ioos:station:WAVCIS:CSI15:1,2009-08-04T08:00:00Z,28.8332,-90.8320,10.0,4.189,168.0,,'11111222,11111222,99999999' 
WAVCIS,ioos:station:WAVCIS:CSI15:1,2009-08-04T09:00:00Z,28.8332,-90.8320,10.0,3.428,178.0,,'11111222,11111222,99999999' 
WAVCIS,ioos:station:WAVCIS:CSI15:1,2009-08-04T10:00:00Z,28.8332,-90.8320,10.0,2.22,190.0,,'11111222,11111222,99999999' 
WAVCIS,ioos:station:WAVCIS:CSI15:1,2009-08-04T11:00:00Z,28.8332,-90.8320,10.0,0.91,174.0,,'11111222,11111222,99999999' 
WAVCIS,ioos:station:WAVCIS:CSI15:1,2009-08-04T12:00:00Z,28.8332,-90.8320,10.0,0.331,159.0,,'11111222,11111222,99999999' 
WAVCIS,ioos:station:WAVCIS:CSI15:1,2009-08-04T13:00:00Z,28.8332,-90.8320,10.0,0.773,101.0,,'11111222,11111222,99999999' 
WAVCIS,ioos:station:WAVCIS:CSI15:1,2009-08-04T14:00:00Z,28.8332,-90.8320,10.0,0.744,98.0,,'11111222,11111222,99999999' 
WAVCIS,ioos:station:WAVCIS:CSI15:1,2009-08-04T15:00:00Z,28.8332,-90.8320,10.0,1.489,109.0,,'11111222,11111222,99999999' 
WAVCIS,ioos:station:WAVCIS:CSI15:1,2009-08-04T16:00:00Z,28.8332,-90.8320,10.0,0.996,106.0,,'11111222,11111222,99999999' 
WAVCIS,ioos:station:WAVCIS:CSI15:1,2009-08-04T17:00:00Z,28.8332,-90.8320,10.0,1.059,95.0,,'11111222,11111222,99999999' 
WAVCIS,ioos:station:WAVCIS:CSI15:1,2009-08-04T18:00:00Z,28.8332,-90.8320,10.0,1.272,70.0,,'11111222,11111222,99999999' 
WAVCIS,ioos:station:WAVCIS:CSI15:1,2009-08-04T19:00:00Z,28.8332,-90.8320,10.0,0.0,0.0,,'11111222,11111222,99999999' 
WAVCIS,ioos:station:WAVCIS:CSI15:1,2009-08-04T20:00:00Z,28.8332,-90.8320,10.0,1.314,93.0,,'11111222,11111222,99999999' 
WAVCIS,ioos:station:WAVCIS:CSI15:1,2009-08-04T21:00:00Z,28.8332,-90.8320,10.0,2.155,141.0,,'11111222,11111222,99999999' 
WAVCIS,ioos:station:WAVCIS:CSI15:1,2009-08-04T22:00:00Z,28.8332,-90.8320,10.0,2.346,139.0,,'11111222,11111222,99999999' 
WAVCIS,ioos:station:WAVCIS:CSI15:1,2009-08-04T23:00:00Z,28.8332,-90.8320,10.0,2.913,123.0,,'11111222,11111222,99999999' 
WAVCIS,ioos:station:WAVCIS:CSI15:1,2009-08-05T00:00:00Z,28.8332,-90.8320,10.0,3.221,136.0,,'11111222,11111222,99999999' 
WAVCIS,ioos:station:WAVCIS:CSI15:1,2009-08-05T01:00:00Z,28.8332,-90.8320,10.0,3.521,146.0,,'11111222,11111222,99999999' 
WAVCIS,ioos:station:WAVCIS:CSI15:1,2009-08-05T02:00:00Z,28.8332,-90.8320,10.0,3.815,136.0,,'11111222,11111222,99999999' 
WAVCIS,ioos:station:WAVCIS:CSI15:1,2009-08-05T03:00:00Z,28.8332,-90.8320,10.0,3.607,139.0,,'11111222,11111222,99999999' 
WAVCIS,ioos:station:WAVCIS:CSI15:1,2009-08-05T04:00:00Z,28.8332,-90.8320,10.0,2.753,139.0,,'11111222,11111222,99999999' 
WAVCIS,ioos:station:WAVCIS:CSI15:1,2009-08-05T05:00:00Z,28.8332,-90.8320,10.0,3.331,147.0,,'11111222,11111222,99999999' 
WAVCIS,ioos:station:WAVCIS:CSI15:1,2009-08-05T06:00:00Z,28.8332,-90.8320,10.0,4.977,155.0,,'11111222,11111222,99999999' 
WAVCIS,ioos:station:WAVCIS:CSI15:1,2009-08-05T07:00:00Z,28.8332,-90.8320,10.0,3.507,176.0,,'11111222,11111222,99999999' 
WAVCIS,ioos:station:WAVCIS:CSI15:1,2009-08-05T08:00:00Z,28.8332,-90.8320,10.0,3.441,155.0,,'11111222,11111222,99999999' 
WAVCIS,ioos:station:WAVCIS:CSI15:1,2009-08-05T09:00:00Z,28.8332,-90.8320,10.0,2.405,188.0,,'11111222,11111222,99999999' 
WAVCIS,ioos:station:WAVCIS:CSI15:1,2009-08-05T10:00:00Z,28.8332,-90.8320,10.0,3.034,224.0,,'11111222,11111222,99999999' 
WAVCIS,ioos:station:WAVCIS:CSI15:1,2009-08-05T11:00:00Z,28.8332,-90.8320,10.0,2.429,222.0,,'11111222,11111222,99999999' 
WAVCIS,ioos:station:WAVCIS:CSI15:1,2009-08-05T12:00:00Z,28.8332,-90.8320,10.0,1.847,264.0,,'11111222,11111222,99999999' 
WAVCIS,ioos:station:WAVCIS:CSI15:1,2009-08-05T13:00:00Z,28.8332,-90.8320,10.0,0.927,272.0,,'11111222,11111222,99999999' 
WAVCIS,ioos:station:WAVCIS:CSI15:1,2009-08-05T14:00:00Z,28.8332,-90.8320,10.0,0.761,288.0,,'11111222,11111222,99999999' 
WAVCIS,ioos:station:WAVCIS:CSI15:1,2009-08-05T15:00:00Z,28.8332,-90.8320,10.0,0.904,270.0,,'11111222,11111222,99999999' 
WAVCIS,ioos:station:WAVCIS:CSI15:1,2009-08-05T16:00:00Z,28.8332,-90.8320,10.0,0.12,333.0,,'11111222,11111222,99999999' 
WAVCIS,ioos:station:WAVCIS:CSI15:1,2009-08-05T17:00:00Z,28.8332,-90.8320,10.0,0.099,329.0,,'11111222,11111222,99999999' 
WAVCIS,ioos:station:WAVCIS:CSI15:1,2009-08-05T18:00:00Z,28.8332,-90.8320,10.0,0.035,56.0,,'11111222,11111222,99999999' 
WAVCIS,ioos:station:WAVCIS:CSI15:1,2009-08-05T19:00:00Z,28.8332,-90.8320,10.0,0.009,37.0,,'11111222,11111222,99999999' 
WAVCIS,ioos:station:WAVCIS:CSI15:1,2009-08-05T20:00:00Z,28.8332,-90.8320,10.0,1.347,261.0,,'11111222,11111222,99999999' 
WAVCIS,ioos:station:WAVCIS:CSI15:1,2009-08-05T21:00:00Z,28.8332,-90.8320,10.0,2.281,235.0,,'11111222,11111222,99999999' 
WAVCIS,ioos:station:WAVCIS:CSI15:1,2009-08-05T22:00:00Z,28.8332,-90.8320,10.0,2.175,225.0,,'11111222,11111222,99999999' 
WAVCIS,ioos:station:WAVCIS:CSI15:1,2009-08-05T23:00:00Z,28.8332,-90.8320,10.0,3.265,224.0,,'11111222,11111222,99999999' 
WAVCIS,ioos:station:WAVCIS:CSI15:1,2009-08-06T00:00:00Z,28.8332,-90.8320,10.0,2.869,244.0,,'11111222,11111222,99999999' 
WAVCIS,ioos:station:WAVCIS:CSI15:1,2009-08-06T01:00:00Z,28.8332,-90.8320,10.0,2.412,273.0,,'11111222,11111222,99999999' 
WAVCIS,ioos:station:WAVCIS:CSI15:1,2009-08-06T02:00:00Z,28.8332,-90.8320,10.0,2.836,232.0,,'11111222,11111222,99999999' 
WAVCIS,ioos:station:WAVCIS:CSI15:1,2009-08-06T03:00:00Z,28.8332,-90.8320,10.0,2.729,255.0,,'11111222,11111222,99999999' 
WAVCIS,ioos:station:WAVCIS:CSI15:1,2009-08-06T04:00:00Z,28.8332,-90.8320,10.0,2.278,243.0,,'11111222,11111222,99999999' 
WAVCIS,ioos:station:WAVCIS:CSI15:1,2009-08-06T05:00:00Z,28.8332,-90.8320,10.0,2.29,222.0,,'11111222,11111222,99999999' 
WAVCIS,ioos:station:WAVCIS:CSI15:1,2009-08-06T06:00:00Z,28.8332,-90.8320,10.0,2.534,224.0,,'11111222,11111222,99999999' 
WAVCIS,ioos:station:WAVCIS:CSI15:1,2009-08-06T07:00:00Z,28.8332,-90.8320,10.0,7.36,83.0,,'11111222,11111222,99999999' 
WAVCIS,ioos:station:WAVCIS:CSI15:1,2009-08-06T08:00:00Z,28.8332,-90.8320,10.0,6.082,153.0,,'11111222,11111222,99999999' 
WAVCIS,ioos:station:WAVCIS:CSI15:1,2009-08-06T09:00:00Z,28.8332,-90.8320,10.0,5.338,191.0,,'11111222,11111222,99999999' 
WAVCIS,ioos:station:WAVCIS:CSI15:1,2009-08-06T10:00:00Z,28.8332,-90.8320,10.0,5.439,192.0,,'11111222,11111222,99999999' 
WAVCIS,ioos:station:WAVCIS:CSI15:1,2009-08-06T11:00:00Z,28.8332,-90.8320,10.0,4.141,215.0,,'11111222,11111222,99999999' 
WAVCIS,ioos:station:WAVCIS:CSI15:1,2009-08-06T12:00:00Z,28.8332,-90.8320,10.0,4.81,212.0,,'11111222,11111222,99999999' 
WAVCIS,ioos:station:WAVCIS:CSI15:1,2009-08-06T13:00:00Z,28.8332,-90.8320,10.0,5.784,217.0,,'11111222,11111222,99999999' 
WAVCIS,ioos:station:WAVCIS:CSI15:1,2009-08-06T14:00:00Z,28.8332,-90.8320,10.0,5.02,243.0,,'11111222,11111222,99999999' 
WAVCIS,ioos:station:WAVCIS:CSI15:1,2009-08-06T15:00:00Z,28.8332,-90.8320,10.0,4.965,284.0,,'11111222,11111222,99999999' 
WAVCIS,ioos:station:WAVCIS:CSI15:1,2009-08-06T16:00:00Z,28.8332,-90.8320,10.0,3.498,293.0,,'11111222,11111222,99999999' 
WAVCIS,ioos:station:WAVCIS:CSI15:1,2009-08-06T17:00:00Z,28.8332,-90.8320,10.0,2.898,292.0,,'11111222,11111222,99999999' 
WAVCIS,ioos:station:WAVCIS:CSI15:1,2009-08-06T18:00:00Z,28.8332,-90.8320,10.0,3.269,293.0,,'11111222,11111222,99999999' 
WAVCIS,ioos:station:WAVCIS:CSI15:1,2009-08-06T19:00:00Z,28.8332,-90.8320,10.0,2.484,289.0,,'11111222,11111222,99999999' 
WAVCIS,ioos:station:WAVCIS:CSI15:1,2009-08-06T20:00:00Z,28.8332,-90.8320,10.0,2.688,291.0,,'11111222,11111222,99999999' 
WAVCIS,ioos:station:WAVCIS:CSI15:1,2009-08-06T21:00:00Z,28.8332,-90.8320,10.0,3.912,285.0,,'11111222,11111222,99999999' 
WAVCIS,ioos:station:WAVCIS:CSI15:1,2009-08-06T22:00:00Z,28.8332,-90.8320,10.0,2.285,276.0,,'11111222,11111222,99999999' 
WAVCIS,ioos:station:WAVCIS:CSI15:1,2009-08-06T23:00:00Z,28.8332,-90.8320,10.0,2.058,277.0,,'11111222,11111222,99999999' 
WAVCIS,ioos:station:WAVCIS:CSI15:1,2009-08-07T00:00:00Z,28.8332,-90.8320,10.0,4.468,352.0,,'11111222,11111222,99999999' 
WAVCIS,ioos:station:WAVCIS:CSI15:1,2009-08-07T01:00:00Z,28.8332,-90.8320,10.0,3.503,358.0,,'11111222,11111222,99999999' 
WAVCIS,ioos:station:WAVCIS:CSI15:1,2009-08-07T02:00:00Z,28.8332,-90.8320,10.0,3.78,20.0,,'11111222,11111222,99999999' 
WAVCIS,ioos:station:WAVCIS:CSI15:1,2009-08-07T03:00:00Z,28.8332,-90.8320,10.0,1.23,28.0,,'11111222,11111222,99999999' 
WAVCIS,ioos:station:WAVCIS:CSI15:1,2009-08-07T04:00:00Z,28.8332,-90.8320,10.0,0.958,358.0,,'11111222,11111222,99999999' 
WAVCIS,ioos:station:WAVCIS:CSI15:1,2009-08-07T05:00:00Z,28.8332,-90.8320,10.0,1.355,122.0,,'11111222,11111222,99999999' 
WAVCIS,ioos:station:WAVCIS:CSI15:1,2009-08-07T06:00:00Z,28.8332,-90.8320,10.0,1.461,117.0,,'11111222,11111222,99999999' 
WAVCIS,ioos:station:WAVCIS:CSI15:1,2009-08-07T07:00:00Z,28.8332,-90.8320,10.0,4.854,141.0,,'11111222,11111222,99999999' 
WAVCIS,ioos:station:WAVCIS:CSI15:1,2009-08-07T08:00:00Z,28.8332,-90.8320,10.0,3.034,141.0,,'11111222,11111222,99999999' 
WAVCIS,ioos:station:WAVCIS:CSI15:1,2009-08-07T09:00:00Z,28.8332,-90.8320,10.0,2.379,134.0,,'11111222,11111222,99999999' 
WAVCIS,ioos:station:WAVCIS:CSI15:1,2009-08-07T10:00:00Z,28.8332,-90.8320,10.0,1.713,127.0,,'11111222,11111222,99999999' 
WAVCIS,ioos:station:WAVCIS:CSI15:1,2009-08-07T11:00:00Z,28.8332,-90.8320,10.0,1.204,197.0,,'11111222,11111222,99999999' 
WAVCIS,ioos:station:WAVCIS:CSI15:1,2009-08-07T12:00:00Z,28.8332,-90.8320,10.0,0.422,191.0,,'11111222,11111222,99999999' 
WAVCIS,ioos:station:WAVCIS:CSI15:1,2009-08-07T13:00:00Z,28.8332,-90.8320,10.0,4.477,335.0,,'11111222,11111222,99999999' 
WAVCIS,ioos:station:WAVCIS:CSI15:1,2009-08-07T14:00:00Z,28.8332,-90.8320,10.0,2.658,318.0,,'11111222,11111222,99999999' 
WAVCIS,ioos:station:WAVCIS:CSI15:1,2009-08-07T15:00:00Z,28.8332,-90.8320,10.0,2.978,334.0,,'11111222,11111222,99999999' 
WAVCIS,ioos:station:WAVCIS:CSI15:1,2009-08-07T16:00:00Z,28.8332,-90.8320,10.0,2.143,345.0,,'11111222,11111222,99999999' 
WAVCIS,ioos:station:WAVCIS:CSI15:1,2009-08-07T17:00:00Z,28.8332,-90.8320,10.0,0.521,1.0,,'11111222,11111222,99999999' 
WAVCIS,ioos:station:WAVCIS:CSI15:1,2009-08-07T18:00:00Z,28.8332,-90.8320,10.0,0.0,0.0,,'11111222,11111222,99999999' 
WAVCIS,ioos:station:WAVCIS:CSI15:1,2009-08-07T19:00:00Z,28.8332,-90.8320,10.0,1.067,14.0,,'11111222,11111222,99999999' 
WAVCIS,ioos:station:WAVCIS:CSI15:1,2009-08-07T20:00:00Z,28.8332,-90.8320,10.0,0.934,102.0,,'11111222,11111222,99999999' 
WAVCIS,ioos:station:WAVCIS:CSI15:1,2009-08-07T21:00:00Z,28.8332,-90.8320,10.0,2.284,119.0,,'11111222,11111222,99999999' 
WAVCIS,ioos:station:WAVCIS:CSI15:1,2009-08-07T22:00:00Z,28.8332,-90.8320,10.0,3.421,108.0,,'11111222,11111222,99999999' 
WAVCIS,ioos:station:WAVCIS:CSI15:1,2009-08-07T23:00:00Z,28.8332,-90.8320,10.0,1.808,81.0,,'11111222,11111222,99999999' 
WAVCIS,ioos:station:WAVCIS:CSI15:1,2009-08-08T00:00:00Z,28.8332,-90.8320,10.0,1.161,99.0,,'11111222,11111222,99999999' 
WAVCIS,ioos:station:WAVCIS:CSI15:1,2009-08-08T01:00:00Z,28.8332,-90.8320,10.0,1.73,80.0,,'11111222,11111222,99999999' 
WAVCIS,ioos:station:WAVCIS:CSI15:1,2009-08-08T02:00:00Z,28.8332,-90.8320,10.0,2.689,58.0,,'11111222,11111222,99999999' 
WAVCIS,ioos:station:WAVCIS:CSI15:1,2009-08-08T03:00:00Z,28.8332,-90.8320,10.0,2.043,73.0,,'11111222,11111222,99999999' 
WAVCIS,ioos:station:WAVCIS:CSI15:1,2009-08-08T04:00:00Z,28.8332,-90.8320,10.0,3.435,66.0,,'11111222,11111222,99999999' 
WAVCIS,ioos:station:WAVCIS:CSI15:1,2009-08-08T05:00:00Z,28.8332,-90.8320,10.0,4.142,102.0,,'11111222,11111222,99999999' 
WAVCIS,ioos:station:WAVCIS:CSI15:1,2009-08-08T06:00:00Z,28.8332,-90.8320,10.0,4.552,107.0,,'11111222,11111222,99999999' 
WAVCIS,ioos:station:WAVCIS:CSI15:1,2009-08-08T07:00:00Z,28.8332,-90.8320,10.0,3.712,121.0,,'11111222,11111222,99999999' 
WAVCIS,ioos:station:WAVCIS:CSI15:1,2009-08-08T08:00:00Z,28.8332,-90.8320,10.0,4.066,124.0,,'11111222,11111222,99999999' 
WAVCIS,ioos:station:WAVCIS:CSI15:1,2009-08-08T09:00:00Z,28.8332,-90.8320,10.0,2.454,146.0,,'11111222,11111222,99999999' 
WAVCIS,ioos:station:WAVCIS:CSI15:1,2009-08-08T10:00:00Z,28.8332,-90.8320,10.0,0.804,88.0,,'11111222,11111222,99999999' 
WAVCIS,ioos:station:WAVCIS:CSI15:1,2009-08-08T11:00:00Z,28.8332,-90.8320,10.0,2.575,134.0,,'11111222,11111222,99999999' 
WAVCIS,ioos:station:WAVCIS:CSI15:1,2009-08-08T12:00:00Z,28.8332,-90.8320,10.0,7.5,146.0,,'11111222,11111222,99999999' 
WAVCIS,ioos:station:WAVCIS:CSI15:1,2009-08-08T13:00:00Z,28.8332,-90.8320,10.0,2.099,133.0,,'11111222,11111222,99999999' 
WAVCIS,ioos:station:WAVCIS:CSI15:1,2009-08-08T14:00:00Z,28.8332,-90.8320,10.0,1.434,83.0,,'11111222,11111222,99999999' 
WAVCIS,ioos:station:WAVCIS:CSI15:1,2009-08-08T15:00:00Z,28.8332,-90.8320,10.0,2.695,87.0,,'11111222,11111222,99999999' 
WAVCIS,ioos:station:WAVCIS:CSI15:1,2009-08-08T16:00:00Z,28.8332,-90.8320,10.0,3.635,92.0,,'11111222,11111222,99999999' 
WAVCIS,ioos:station:WAVCIS:CSI15:1,2009-08-08T17:00:00Z,28.8332,-90.8320,10.0,2.7,121.0,,'11111222,11111222,99999999' 
WAVCIS,ioos:station:WAVCIS:CSI15:1,2009-08-08T18:00:00Z,28.8332,-90.8320,10.0,1.918,140.0,,'11111222,11111222,99999999' 
WAVCIS,ioos:station:WAVCIS:CSI15:1,2009-08-08T19:00:00Z,28.8332,-90.8320,10.0,1.395,124.0,,'11111222,11111222,99999999' 
WAVCIS,ioos:station:WAVCIS:CSI15:1,2009-08-08T20:00:00Z,28.8332,-90.8320,10.0,1.961,131.0,,'11111222,11111222,99999999' 
WAVCIS,ioos:station:WAVCIS:CSI15:1,2009-08-08T21:00:00Z,28.8332,-90.8320,10.0,2.032,132.0,,'11111222,11111222,99999999' 
WAVCIS,ioos:station:WAVCIS:CSI15:1,2009-08-08T22:00:00Z,28.8332,-90.8320,10.0,1.609,126.0,,'11111222,11111222,99999999' 
WAVCIS,ioos:station:WAVCIS:CSI15:1,2009-08-08T23:00:00Z,28.8332,-90.8320,10.0,1.726,132.0,,'11111222,11111222,99999999' 
WAVCIS,ioos:station:WAVCIS:CSI15:1,2009-08-09T00:00:00Z,28.8332,-90.8320,10.0,1.281,68.0,,'11111222,11111222,99999999' 
WAVCIS,ioos:station:WAVCIS:CSI15:1,2009-08-09T01:00:00Z,28.8332,-90.8320,10.0,3.497,85.0,,'11111222,11111222,99999999' 
WAVCIS,ioos:station:WAVCIS:CSI15:1,2009-08-09T02:00:00Z,28.8332,-90.8320,10.0,5.192,103.0,,'11111222,11111222,99999999' 
WAVCIS,ioos:station:WAVCIS:CSI15:1,2009-08-09T03:00:00Z,28.8332,-90.8320,10.0,4.272,118.0,,'11111222,11111222,99999999' 
WAVCIS,ioos:station:WAVCIS:CSI15:1,2009-08-09T04:00:00Z,28.8332,-90.8320,10.0,4.532,122.0,,'11111222,11111222,99999999' 